Theta_e
303 299 296 300 301 301 300 298 298 301 300 298 299 299 302 301 300 301 301 300 298 297 297 298 299 303 305 303 303 304 305 305 307 307 306 304 301 300 299 298 300 300 301 303
298 295 302 304 302 300 298 297 297 301 298 297 298 298 302 303 300 301 301 300 298 296 296 297 299 301 303 303 304 304 305 308 309 307 305 302 299 297 296 295 295 296 296 296
297 300 301 299 297 296 297 296 297 297 296 297 296 295 298 302 302 300 300 300 298 296 295 295 297 299 300 301 302 302 304 304 304 303 300 298 297 296 294 293 292 293 294 294
298 302 297 297 296 297 294 300 297 296 294 291 297 289 298 301 297 296 296 297 296 296 296 296 295 296 297 297 298 300 300 301 301 302 301 299 295 291 291 291 292 292 293 292
297 295 295 294 296 298 296 298 296 296 294 294 295 289 295 299 296 295 295 295 296 296 295 294 294 294 294 295 295 296 295 295 296 297 297 295 292 292 291 290 290 290 291 291
298 299 298 298 296 298 298 295 294 294 293 287 293 292 293 296 295 297 295 294 295 294 294 293 293 292 291 292 293 293 292 292 293 294 294 292 291 290 290 290 290 289 289 289
295 296 299 298 294 295 296 293 288 286 285 285 292 292 294 300 296 298 294 294 294 294 293 292 290 290 290 290 291 291 291 289 291 292 292 292 291 291 290 290 289 288 288 287
292 291 297 297 298 296 292 294 289 283 285 287 286 286 293 298 297 295 297 295 295 293 293 291 291 290 289 289 289 288 289 288 289 290 290 291 291 290 290 289 289 288 287 286
293 294 297 297 299 300 293 290 297 288 283 283 289 291 296 292 291 293 295 294 292 292 292 291 291 290 289 288 288 288 288 288 288 289 289 289 289 289 288 288 288 287 287 286
298 292 293 293 294 295 294 297 287 288 282 282 289 290 291 289 290 291 292 292 292 292 292 291 291 290 289 289 288 289 288 287 288 288 288 288 288 288 288 288 287 286 286 285
298 295 290 291 290 291 289 289 291 292 290 286 285 288 296 296 294 291 292 293 292 292 292 291 291 290 290 289 288 288 288 288 287 288 288 288 288 288 288 287 286 286 285 284
298 295 292 290 295 295 296 293 292 287 285 287 286 289 292 297 298 295 293 293 294 293 293 292 291 290 289 288 288 287 287 287 288 288 288 287 287 287 287 286 286 286 284 284
296 291 286 289 288 290 288 291 293 292 289 286 286 289 293 293 294 295 294 294 294 293 293 292 291 289 288 288 288 287 287 287 288 287 287 287 286 286 286 286 285 285 284 283
299 292 290 289 292 293 287 289 290 290 286 287 289 291 289 291 292 293 295 295 294 293 293 292 291 291 289 288 287 287 287 288 287 287 287 286 286 286 286 286 285 283 283 281
296 288 292 293 295 295 291 290 289 287 289 287 291 292 296 293 294 295 295 295 293 292 292 292 292 292 291 290 288 288 288 287 287 286 286 286 287 287 286 285 283 282 281 280
294 287 291 288 293 293 290 292 291 290 290 291 292 293 300 300 297 296 295 294 292 292 293 293 292 292 291 291 290 288 288 287 287 285 285 286 286 285 284 282 280 279 278 278
288 287 285 284 290 289 282 287 290 292 292 292 288 293 294 294 293 293 293 294 293 293 293 293 292 292 292 292 291 289 288 287 285 284 284 284 285 283 282 281 279 278 277 277
288 286 287 285 285 279 290 296 292 292 293 294 293 290 291 291 293 295 297 294 293 293 293 293 293 294 293 293 291 291 288 286 284 284 284 283 283 281 281 279 277 277 277 276
289 288 284 282 283 287 290 283 288 290 290 295 292 289 288 287 289 290 294 295 294 294 294 294 294 294 292 290 289 287 285 285 283 283 283 282 282 280 279 277 276 277 276 275
283 287 285 282 281 280 285 288 290 293 284 292 291 288 285 287 287 291 288 288 290 291 290 289 290 289 287 288 287 284 283 282 282 282 283 283 282 280 278 277 276 277 276 275
279 281 280 283 282 285 286 283 287 282 285 287 290 288 285 287 290 288 287 287 288 287 286 286 286 285 286 284 283 282 282 281 283 283 282 281 281 279 278 277 276 274 273 273
281 280 281 283 280 279 284 281 284 287 285 287 291 289 287 288 284 285 286 285 284 283 283 284 283 282 283 282 282 282 281 283 282 281 279 278 277 277 276 274 273 272 271 270
281 286 285 286 284 281 283 283 286 287 288 285 287 288 288 284 283 283 282 282 282 282 281 282 282 281 281 281 281 281 282 280 278 277 276 275 274 274 273 271 271 270 269 270
281 282 283 283 280 281 282 285 283 284 285 285 285 285 285 283 282 281 281 281 281 281 281 280 280 279 279 280 279 281 279 277 275 275 273 272 271 271 270 271 272 271 271 270
280 281 280 277 278 280 282 283 285 285 283 282 282 283 284 283 280 281 281 281 281 281 280 280 279 279 279 279 279 279 276 274 275 275 273 273 272 270 270 270 271 271 272 273
279 279 278 279 280 284 283 285 286 283 282 282 282 280 281 282 281 281 281 281 281 281 280 278 278 277 277 277 276 275 273 273 274 274 273 273 272 271 271 271 270 274 274 274
Wind_Speed
9 10 14 18 17 17 8 10 12 8 4 5 14 15 12 14 12 12 11 10 9 7 4 4 4 5 7 8 8 8 8 6 5 6 8 8 10 9 10 10 12 12 11 12
5 17 18 13 11 14 13 15 16 13 4 4 12 17 15 14 18 16 14 12 11 9 8 6 6 6 6 7 8 8 7 6 6 6 7 7 9 10 9 9 11 12 12 12
17 3 7 10 8 12 16 16 14 14 2 10 13 19 22 24 15 9 10 10 10 12 11 9 8 8 7 7 7 8 8 9 8 9 9 9 9 9 9 9 8 10 12 12
15 12 5 10 16 15 16 14 14 12 7 10 6 11 11 10 16 15 14 14 14 13 12 10 10 9 8 7 6 9 9 9 7 7 7 7 8 9 8 9 8 8 10 11
6 10 12 13 11 11 7 2 7 11 14 15 17 11 12 7 15 19 19 17 16 15 15 14 12 11 9 8 8 8 9 9 8 8 9 8 10 8 8 8 10 10 9 11
14 3 7 11 3 7 10 5 2 3 8 14 17 18 12 13 14 13 18 19 19 19 17 15 12 10 9 7 8 8 10 9 8 8 9 10 11 10 8 9 7 6 6 7
14 16 6 5 6 3 13 8 5 6 7 9 1 14 16 2 5 9 21 22 20 18 17 15 14 12 10 9 8 8 9 10 9 9 10 11 11 10 11 8 6 8 6 6
16 10 23 17 22 10 18 17 7 7 7 5 2 11 8 2 7 4 15 19 18 19 17 16 15 13 12 10 9 9 7 10 9 10 10 9 9 6 6 7 7 6 6 6
12 11 6 7 10 16 8 14 13 4 2 5 8 11 7 7 7 7 16 19 20 19 17 17 17 14 12 11 10 10 10 9 10 10 9 9 9 8 9 8 8 6 7 6
5 7 5 5 4 4 9 9 7 7 7 9 9 14 11 10 15 15 18 19 18 18 18 17 16 15 14 13 11 11 10 10 10 10 9 8 8 8 9 8 7 7 7 6
8 8 7 7 12 18 8 10 9 6 10 4 5 8 9 13 17 21 18 18 21 21 20 18 16 15 14 12 12 12 11 12 10 9 8 9 8 9 8 7 8 7 6 5
14 4 11 14 4 9 17 14 20 7 7 7 5 11 3 3 11 16 17 18 19 19 19 18 16 15 14 14 14 13 12 11 10 10 9 9 9 8 8 8 7 6 7 5
15 6 3 4 1 2 10 16 16 19 1 15 8 8 3 6 7 12 16 17 17 18 19 17 17 17 15 15 14 13 12 12 11 10 10 9 9 9 8 8 8 7 7 7
9 6 12 19 6 9 11 16 22 18 14 15 28 15 6 10 12 13 14 16 17 19 20 19 18 17 16 14 14 14 13 12 12 11 11 11 10 9 9 9 8 7 6 7
11 10 17 23 22 11 8 15 24 29 34 19 30 25 14 17 16 17 16 16 17 18 19 20 18 16 16 16 15 14 14 14 13 13 12 12 11 10 9 8 7 6 5 5
3 6 13 23 20 20 22 19 23 31 30 31 31 30 4 15 14 11 14 15 16 17 19 20 18 18 18 17 15 14 14 14 14 14 13 12 12 9 7 8 7 7 6 6
11 7 7 19 10 13 6 40 24 26 30 24 30 30 4 6 11 10 9 11 14 16 18 18 19 17 15 15 14 15 14 12 13 12 10 9 9 9 9 9 8 8 8 7
11 13 7 10 5 13 21 9 14 30 26 21 21 1 2 8 6 5 5 12 12 11 13 13 12 13 12 11 12 10 10 11 11 11 10 9 10 11 10 9 9 8 7 7
3 10 5 7 11 11 17 5 8 13 23 22 10 9 6 6 5 4 6 4 7 9 10 10 10 10 11 10 10 9 9 9 11 12 12 12 13 12 11 10 10 8 7 6
2 5 8 5 7 11 3 6 2 7 12 10 15 14 11 10 7 7 11 6 6 7 7 9 8 7 8 7 8 9 9 10 12 12 14 12 12 12 12 11 10 8 6 6
4 3 14 13 7 6 3 7 3 8 2 3 9 11 11 7 3 5 11 8 7 8 9 8 8 7 7 8 9 10 10 12 12 7 7 9 10 10 9 9 7 7 6 6
12 10 7 6 5 10 9 4 8 1 3 4 5 7 9 6 6 7 9 10 9 9 7 7 7 6 6 7 8 7 10 9 6 7 8 7 7 7 7 8 7 7 6 6
6 5 5 3 1 3 4 2 2 1 4 3 4 5 7 8 7 9 9 9 7 8 7 4 4 4 4 5 6 6 7 7 7 7 7 7 7 6 7 7 7 6 7 6
4 2 4 5 1 1 4 5 5 1 2 2 3 8 9 8 8 5 6 6 6 5 5 4 5 4 5 5 6 8 5 6 7 6 7 6 6 7 6 6 6 7 7 7
2 7 5 5 4 5 5 6 7 7 1 3 4 5 8 8 7 6 6 6 5 5 4 4 6 5 6 5 6 5 6 7 5 5 6 7 6 8 7 7 7 7 7 8
5 6 4 3 13 6 11 16 14 9 8 5 6 4 3 6 8 6 6 5 5 5 4 4 5 4 3 4 3 4 4 6 6 6 5 5 5 6 6 6 5 13 14 12
Wind_Direction
202 216 217 223 225 252 291 284 267 270 97 260 243 250 221 196 214 217 208 205 196 178 144 122 117 124 118 113 103 103 112 136 134 123 112 94 84 79 74 67 62 61 56 58
183 229 236 241 269 235 239 253 256 264 144 254 270 264 260 224 211 218 216 206 189 165 159 144 131 128 117 115 112 113 115 114 90 89 93 99 99 88 88 80 69 64 62 61
226 220 240 196 210 218 234 240 252 260 135 239 273 265 253 243 204 213 233 205 182 175 161 152 141 128 122 112 109 106 101 102 96 104 107 109 115 111 102 88 77 63 63 59
243 237 165 204 227 219 243 226 255 263 251 261 164 282 279 241 206 210 204 198 182 168 161 148 145 136 123 114 108 106 105 103 103 132 137 125 109 106 89 85 83 72 64 65
203 185 201 213 221 205 257 58 229 247 258 272 254 264 260 243 214 206 202 196 184 171 164 161 152 139 127 128 115 110 109 107 109 111 111 110 106 106 105 97 90 82 68 63
261 18 205 221 104 205 129 115 86 254 265 255 238 235 253 213 230 199 186 191 181 173 169 163 151 149 138 135 131 123 119 109 105 105 104 107 112 114 117 112 102 89 82 75
214 219 176 178 151 151 201 176 248 234 212 257 337 219 251 218 168 199 181 184 179 173 171 165 164 167 155 149 137 131 126 116 112 109 112 114 115 116 119 120 116 116 102 86
212 222 196 198 214 193 197 198 202 247 234 266 20 236 243 263 109 133 176 178 172 175 176 176 174 169 162 157 151 141 131 127 124 119 116 116 114 113 108 110 118 112 112 99
204 235 190 191 221 211 165 221 238 312 155 267 221 244 256 159 180 170 167 171 178 179 178 178 177 175 168 168 163 157 149 142 140 136 133 133 131 136 124 120 114 109 108 104
218 243 171 145 175 249 211 159 174 217 228 238 240 242 241 208 196 180 179 181 179 180 182 182 180 178 174 174 167 162 162 159 153 152 148 143 137 135 131 130 123 116 113 113
202 242 129 153 202 184 176 204 219 227 223 258 277 241 185 203 188 184 184 184 183 185 184 183 182 180 176 172 169 171 172 166 165 163 156 148 151 148 143 136 129 128 125 128
198 219 234 212 122 260 226 213 205 211 183 245 290 253 155 131 175 173 183 187 188 188 185 184 181 176 176 176 176 179 177 172 173 169 167 164 160 161 158 146 144 145 145 151
165 189 220 245 182 174 224 217 229 228 91 225 213 244 137 142 156 178 179 183 184 182 183 183 183 185 183 181 180 180 181 180 178 172 172 173 177 178 168 159 158 168 162 167
144 154 202 228 212 152 203 206 207 213 225 232 237 249 180 207 190 184 186 181 182 185 187 186 187 186 183 185 182 184 184 184 179 177 182 185 186 185 177 170 173 171 179 178
164 220 222 247 255 244 206 204 206 209 225 215 249 239 218 201 199 195 183 177 181 186 190 193 191 186 182 184 182 186 187 186 184 186 189 192 189 188 180 171 172 165 183 188
145 241 224 255 241 245 259 248 220 219 228 232 247 253 243 192 194 183 181 174 184 192 197 195 189 187 188 184 186 185 192 185 186 190 195 189 190 180 165 161 172 174 185 190
172 195 186 251 207 242 273 236 227 232 223 222 234 246 140 152 179 189 169 181 198 198 198 192 191 188 185 181 184 190 190 177 186 191 190 184 175 169 174 173 177 187 192 196
181 191 202 254 113 217 244 280 235 234 240 228 247 117 101 167 160 142 174 200 205 199 191 187 182 180 178 180 183 186 178 180 181 188 182 172 171 182 180 178 187 189 191 197
182 190 204 220 221 292 278 172 183 183 242 230 220 136 135 104 84 227 203 221 187 181 175 172 168 164 163 167 166 164 164 173 175 192 189 187 186 184 181 188 190 189 189 195
45 235 206 161 226 229 16 94 257 144 265 175 171 171 151 145 205 225 159 157 130 125 133 139 134 126 140 148 144 149 165 170 192 194 198 189 186 188 190 190 185 179 183 196
159 191 217 223 234 274 133 154 217 170 261 49 147 157 157 160 166 131 141 142 138 138 132 123 129 154 159 145 148 170 169 194 203 180 163 177 184 188 183 174 173 164 178 195
173 173 193 208 230 246 144 116 192 60 65 121 134 169 175 125 107 126 139 141 143 136 133 142 147 171 154 147 158 168 187 205 145 148 159 161 162 165 167 162 157 165 178 190
201 202 181 226 220 341 95 11 203 177 93 146 176 173 160 145 158 153 150 148 146 146 143 135 139 141 148 154 172 181 219 145 142 149 157 147 144 160 158 164 168 177 190 209
230 190 169 151 101 51 46 345 333 350 246 135 113 150 157 152 150 136 131 142 152 147 146 129 138 182 222 195 190 212 131 131 140 154 145 139 160 168 166 184 189 196 197 202
71 148 143 92 121 134 204 246 270 258 352 137 123 166 166 139 145 150 153 161 166 158 139 153 184 204 229 177 203 170 149 141 154 154 158 168 184 187 185 207 201 209 215 212
183 161 193 164 159 142 197 213 218 202 209 173 159 129 105 138 160 152 176 174 167 182 159 179 194 196 190 163 153 127 128 153 162 172 174 183 183 180 207 203 223 236 239 238